Погода в Сетубале

Португалия     38°31′31″N   8°54′10″W
темп.,
°C
ветер,
м/с
пор.,
м/с
влажн.,
%
обл.,
%
осадки,
мм/ч
давл.,
гПа
погр.,
м
24 мая, вт
вт2401:00+14ссз712750 0.0 1016777
04:00+13ссз612750 0.0 1016827
07:00+14ссз611735 0.0 1016800
10:00+18ссз810505 0.0 10161279
13:00+21ссз91139100 0.0 10171438
16:00+21ссз101240100 0.0 10171473
19:00+18ссз91250100 0.0 10171319
22:00+15ссз8137297 0.0 1019897
25 мая, ср
ср2501:00+14ссз71376100 0.0 1019782
04:00+14с6127898 0.0 1019646
07:00+13с398598 0.0 1020391
10:00+18ссв6752100 0.0 1021806
13:00+23ссв463246 0.0 10201329
16:00+26ссв352560 0.0 10181810
19:00+23ссз910395 0.0 1018595
22:00+16с4116813 0.0 1020255
26 мая, чт
чт2601:00+14ссв46835 0.0 1020129
04:00+13ссв48835 0.0 1020160
07:00+13св46621 0.0 1020105
10:00+23всв45321 0.0 1021424
13:00+28св24261 0.0 10201586
16:00+30сз45235 0.0 10181887
19:00+30с57225 0.0 10161891
22:00+20с33525 0.0 101837
27 мая, пт
пт2701:00+17ссв47645 0.0 1018103
04:00+16всв34635 0.0 101855
07:00+16всв11625 0.0 101922
10:00+23в33415 0.0 1019358
13:00+30в13280 0.0 1018955
16:00+34з14210 0.0 10152312
19:00+30зсз34300 0.0 1014477
22:00+18з32660 0.0 101634
28 мая, сб
сб2801:00+18юв01695 0.0 101511
04:00+16юв22875 0.0 101421
07:00+17в237472 0.0 101443
10:00+23ююв5947100 0.0 1014575
13:00+28ю46345 0.0 10131256
16:00+29зюз653448 0.0 1011885
19:00+23юз57530 0.0 1012399
22:00+16з11910 0.0 101312